Twin Falls, ID

9:29 AM MDT on September 30, 2016 (GMT -0600)
Joslin Field-Magic Valley Regional

Weather History for KTWF - March, 2013

Change the Weather History Date:

Friday, March 29, 2013

  Actual Average Record
Temperature  
Mean Temperature 54 °F -  
Max Temperature 66 °F 56 °F 75 °F (1986)
Min Temperature 41 °F 33 °F 18 °F (1987)
Degree Days  
Heating Degree Days 11 20  
Month to date heating degree days 633 681  
Since 1 July heating degree days 4925 5248  
Cooling Degree Days 0 0  
Month to date cooling degree days 0 0  
Year to date cooling degree days 0 0  
Growing Degree Days 4 (Base 50)    
Moisture  
Dew Point 34 °F    
Average Humidity 50    
Maximum Humidity 70    
Minimum Humidity 30    
Precipitation  
Precipitation 0.00 in 0.04 in 0.62 in (2014)
Month to date precipitation 0.63 0.95  
Year to date precipitation 1.56 2.74  
Sea Level Pressure  
Sea Level Pressure 30.06 in    
Wind  
Wind Speed 11 mph (SW)    
Max Wind Speed 18 mph    
Max Gust Speed 23 mph    
Visibility 10 miles    
Events      
T = Trace of Precipitation, MM = Missing Value Source: NWS Daily Summary

Daily Weather History Graph

Daily Weather History Graph

Search for Another Location

Airport or City:

Trip Planner

Search our weather history database for the weather conditions in past years. The results will help you decide how hot, cold, wet, or windy it might be!

Date:

Astronomy

Mar. 29, 2013 Rise Set
Actual Time 7:24 AM MDT 8:00 PM MDT
Civil Twilight 6:56 AM MDT 8:29 PM MDT
Nautical Twilight 6:23 AM MDT 9:02 PM MDT
Astronomical Twilight 5:48 AM MDT 9:37 PM MDT
Moon 11:10 PM MDT (3/29) 8:33 AM MDT (3/29)
Length of Visible Light 13h 32m
Length of Day
12h 35m
Waning Gibbous, 93% of the Moon is Illuminated
Mar 29
Waning Gibbous
Apr 2
Last Quarter
Apr 10
New
Apr 18
First Quarter
Apr 25
Full

Hourly Weather History & Observations

Time (MDT) Temp. Windchill Dew Point Humidity Pressure Visibility Wind Dir Wind Speed Gust Speed Precip Events Conditions
12:53 AM 50.0 °F - 36.0 °F 59% 29.99 in 10.0 mi SSW 11.5 mph - N/A   Mostly Cloudy
1:53 AM 50.0 °F - 36.0 °F 59% 30.00 in 10.0 mi South 10.4 mph - N/A   Overcast
2:53 AM 46.0 °F 41.4 °F 35.1 °F 66% 30.01 in 10.0 mi South 9.2 mph - N/A   Partly Cloudy
3:53 AM 43.0 °F 36.8 °F 34.0 °F 71% 30.01 in 10.0 mi South 11.5 mph - N/A   Clear
4:53 AM 42.1 °F 35.2 °F 34.0 °F 73% 30.02 in 10.0 mi South 12.7 mph - N/A   Clear
5:53 AM 44.1 °F 38.6 °F 34.0 °F 68% 30.03 in 10.0 mi South 10.4 mph - N/A   Clear
6:53 AM 43.0 °F 36.4 °F 34.0 °F 71% 30.06 in 10.0 mi South 12.7 mph - N/A   Partly Cloudy
7:53 AM 46.0 °F 41.0 °F 34.0 °F 63% 30.09 in 10.0 mi SSW 10.4 mph - N/A   Mostly Cloudy
8:53 AM 52.0 °F - 34.0 °F 50% 30.09 in 10.0 mi SSW 10.4 mph - N/A   Partly Cloudy
9:53 AM 55.9 °F - 34.0 °F 44% 30.10 in 10.0 mi WSW 18.4 mph 23.0 mph N/A   Partly Cloudy
10:53 AM 59.0 °F - 34.0 °F 39% 30.10 in 10.0 mi WSW 17.3 mph 20.7 mph N/A   Clear
11:53 AM 61.0 °F - 35.1 °F 38% 30.10 in 10.0 mi West 13.8 mph 21.9 mph N/A   Clear
12:53 PM 63.0 °F - 36.0 °F 37% 30.09 in 10.0 mi West 16.1 mph 20.7 mph N/A   Clear
1:53 PM 64.0 °F - 35.1 °F 34% 30.08 in 10.0 mi West 11.5 mph - N/A   Partly Cloudy
2:53 PM 64.9 °F - 36.0 °F 34% 30.07 in 10.0 mi West 11.5 mph 18.4 mph N/A   Partly Cloudy
3:53 PM 66.0 °F - 36.0 °F 33% 30.06 in 10.0 mi West 8.1 mph - N/A   Clear
4:53 PM 64.9 °F - 34.0 °F 32% 30.06 in 10.0 mi WNW 10.4 mph 19.6 mph N/A   Clear
5:53 PM 64.9 °F - 32.0 °F 29% 30.05 in 10.0 mi WNW 10.4 mph 19.6 mph N/A   Clear
6:53 PM 63.0 °F - 32.0 °F 31% 30.06 in 10.0 mi WNW 10.4 mph - N/A   Clear
7:53 PM 57.9 °F - 33.1 °F 39% 30.07 in 10.0 mi WNW 10.4 mph - N/A   Clear
8:53 PM 51.1 °F - 30.9 °F 46% 30.08 in 10.0 mi WSW 5.8 mph - N/A   Clear
9:53 PM 46.9 °F - 30.9 °F 54% 30.10 in 10.0 mi SSW 8.1 mph - N/A   Clear
10:53 PM 46.0 °F 41.4 °F 32.0 °F 58% 30.10 in 10.0 mi South 9.2 mph - N/A   Clear
11:53 PM 46.0 °F 40.6 °F 32.0 °F 58% 30.10 in 10.0 mi South 11.5 mph - N/A   Clear